| time (UTC) | temp F | wind direction | speed knots | gust knots | rain 1hr in | rain 24hr in | rain mn in | humidity % | barometer mb |
| 20260503014211 | 59 | 9 | 1.7 | 2.6 | 0.00 | 0.00 | 0.00 | 89 | 1014.0 |
| 20260503014111 | 59 | 9 | 1.7 | 2.6 | 0.00 | 0.00 | 0.00 | 89 | 1014.0 |
| 20260503012211 | 57 | 22 | 0.9 | 2.6 | 0.00 | 0.00 | 0.00 | 83 | 1013.0 |
| 20260503012110 | 57 | 22 | 0.9 | 2.6 | 0.00 | 0.00 | 0.00 | 83 | 1013.0 |
| 20260503010210 | 58 | 22 | 0.9 | 2.6 | 0.00 | 0.00 | 0.00 | 83 | 1014.0 |
| 20260503010110 | 58 | 22 | 0.9 | 2.6 | 0.00 | 0.00 | 0.00 | 83 | 1014.0 |
| 20260503004210 | 59 | 22 | 0.9 | 2.6 | 0.00 | 0.00 | 0.00 | 83 | 1014.0 |
| 20260503004110 | 59 | 22 | 0.9 | 2.6 | 0.00 | 0.00 | 0.00 | 83 | 1014.0 |
| 20260503002209 | 60 | 22 | 1.7 | 2.6 | 0.00 | 0.00 | 0.00 | 83 | 1012.0 |
| 20260503002109 | 60 | 22 | 1.7 | 2.6 | 0.00 | 0.00 | 0.00 | 83 | 1012.0 |
| 20260503000211 | 58 | 18 | 0.9 | 2.6 | 0.04 | 0.00 | 0.00 | 83 | 1013.0 |
| 20260503000108 | 58 | 18 | 0.9 | 2.6 | 0.04 | 0.00 | 0.00 | 83 | 1013.0 |
| 20260502234208 | 59 | 18 | 0.9 | 2.6 | 0.07 | 0.00 | 0.00 | 83 | 1013.0 |
| 20260502234108 | 59 | 18 | 0.9 | 2.6 | 0.07 | 0.00 | 0.00 | 83 | 1013.0 |
| 20260502232208 | 60 | 18 | 1.7 | 2.6 | 0.11 | 0.00 | 0.00 | 83 | 1011.0 |
| 20260502232108 | 60 | 18 | 1.7 | 2.6 | 0.11 | 0.00 | 0.00 | 83 | 1011.0 |
| 20260502230207 | 58 | 16 | 2.6 | 4.3 | 0.01 | 0.00 | 0.00 | 82 | 1012.0 |
| 20260502230107 | 58 | 16 | 2.6 | 4.3 | 0.01 | 0.00 | 0.00 | 82 | 1012.0 |
| 20260502224207 | 59 | 16 | 2.6 | 4.3 | 0.00 | 0.00 | 0.00 | 82 | 1011.0 |
| 20260502224106 | 59 | 16 | 2.6 | 4.3 | 0.00 | 0.00 | 0.00 | 82 | 1011.0 |
| 20260502222206 | 60 | 16 | 2.6 | 5.2 | 0.01 | 0.00 | 0.00 | 82 | 1009.0 |
| 20260502222106 | 60 | 16 | 2.6 | 5.2 | 0.01 | 0.00 | 0.00 | 82 | 1009.0 |
| 20260502220205 | 58 | 8 | 2.6 | 6.1 | 0.00 | 0.00 | 0.00 | 85 | 1011.0 |
| 20260502220105 | 58 | 8 | 2.6 | 6.1 | 0.00 | 0.00 | 0.00 | 85 | 1011.0 |
| 20260502214204 | 59 | 8 | 2.6 | 6.1 | 0.00 | 0.00 | 0.00 | 85 | 1011.0 |
| 20260502214104 | 59 | 8 | 2.6 | 6.1 | 0.00 | 0.00 | 0.00 | 85 | 1011.0 |
| 20260502212204 | 60 | 8 | 2.6 | 6.1 | 0.00 | 0.00 | 0.00 | 85 | 1010.0 |
| 20260502212104 | 60 | 8 | 2.6 | 6.1 | 0.00 | 0.00 | 0.00 | 85 | 1010.0 |
| 20260502210204 | 61 | 8 | 2.6 | 6.1 | 0.00 | 0.00 | 0.00 | 85 | 1011.0 |
| 20260502210104 | 61 | 8 | 2.6 | 6.1 | 0.00 | 0.00 | 0.00 | 85 | 1011.0 |
| 20260502204203 | 62 | 8 | 2.6 | 6.1 | 0.03 | 0.00 | 0.00 | 87 | 1011.0 |
| 20260502204103 | 62 | 8 | 2.6 | 6.1 | 0.03 | 0.00 | 0.00 | 87 | 1011.0 |
| 20260502202203 | 60 | 343 | 2.6 | 4.3 | 0.00 | 0.00 | 0.00 | 86 | 1010.0 |
| 20260502202102 | 60 | 343 | 2.6 | 4.3 | 0.00 | 0.00 | 0.00 | 86 | 1010.0 |
| 20260502200202 | 61 | 343 | 2.6 | 4.3 | 0.03 | 0.00 | 0.00 | 86 | 1011.0 |
| 20260502194201 | 62 | 343 | 2.6 | 5.2 | 0.12 | 0.00 | 0.00 | 86 | 1011.0 |
| 20260502194101 | 62 | 343 | 2.6 | 5.2 | 0.12 | 0.00 | 0.00 | 86 | 1011.0 |
| 20260502192201 | 60 | 44 | 2.6 | 4.3 | 0.00 | 0.00 | 0.00 | 90 | 1010.0 |
| 20260502192100 | 60 | 44 | 2.6 | 4.3 | 0.00 | 0.00 | 0.00 | 90 | 1010.0 |
| 20260502190200 | 61 | 44 | 2.6 | 4.3 | 0.03 | 0.00 | 0.00 | 90 | 1011.0 |
| 20260502190059 | 61 | 44 | 2.6 | 4.3 | 0.03 | 0.00 | 0.00 | 90 | 1011.0 |
| 20260502184159 | 62 | 44 | 2.6 | 5.2 | 0.13 | 0.00 | 0.00 | 90 | 1011.0 |
| 20260502184059 | 62 | 44 | 2.6 | 5.2 | 0.13 | 0.00 | 0.00 | 90 | 1011.0 |
| 20260502182158 | 61 | 117 | 0.9 | 2.6 | 0.02 | 0.00 | 0.00 | 82 | 1011.0 |
| 20260502182058 | 61 | 117 | 0.9 | 2.6 | 0.02 | 0.00 | 0.00 | 82 | 1011.0 |
| 20260502180158 | 60 | 117 | 0.9 | 2.6 | 0.02 | 0.00 | 0.00 | 85 | 1012.0 |
| 20260502170157 | 60 | 155 | 1.7 | 2.6 | 0.02 | 0.00 | 0.00 | 84 | 1013.0 |
| 20260502164156 | 60 | 155 | 1.7 | 2.6 | 0.02 | 0.00 | 0.00 | 83 | 1013.0 |
| 20260502164056 | 60 | 155 | 1.7 | 2.6 | 0.02 | 0.00 | 0.00 | 83 | 1013.0 |
| 20260502162156 | 62 | 170 | 1.7 | 2.6 | 0.01 | 0.00 | 0.00 | 80 | 1012.0 |
| 20260502162055 | 62 | 170 | 1.7 | 2.6 | 0.01 | 0.00 | 0.00 | 80 | 1012.0 |
| 20260502160155 | 61 | 170 | 1.7 | 2.6 | 0.01 | 0.00 | 0.00 | 80 | 1013.0 |
| 20260502152154 | 62 | 172 | 1.7 | 2.6 | 0.00 | 0.00 | 0.00 | 79 | 1012.0 |
| 20260502152054 | 62 | 172 | 1.7 | 2.6 | 0.00 | 0.00 | 0.00 | 79 | 1012.0 |
| 20260502150153 | 61 | 172 | 1.7 | 2.6 | 0.00 | 0.00 | 0.00 | 79 | 1013.0 |
| 20260502130151 | 61 | 24 | 1.7 | 3.5 | 0.00 | 0.00 | 0.00 | 86 | 1012.0 |
| 20260502122150 | 58 | 18 | 2.6 | 3.5 | 0.00 | 0.00 | 0.00 | 92 | 1011.0 |
| 20260502122049 | 58 | 18 | 2.6 | 3.5 | 0.00 | 0.00 | 0.00 | 92 | 1011.0 |
| 20260502120149 | 58 | 18 | 2.6 | 3.5 | 0.00 | 0.00 | 0.00 | 92 | 1012.0 |
| 20260502114149 | 58 | 18 | 2.6 | 3.5 | 0.00 | 0.00 | 0.00 | 92 | 1012.0 |
| 20260502114051 | 58 | 18 | 2.6 | 3.5 | 0.00 | 0.00 | 0.00 | 92 | 1012.0 |
| 20260502112148 | 56 | 21 | 2.6 | 2.6 | 0.00 | 0.00 | 0.00 | 81 | 1011.0 |
| 20260502112048 | 56 | 21 | 2.6 | 2.6 | 0.00 | 0.00 | 0.00 | 81 | 1011.0 |
| 20260502110148 | 56 | 21 | 2.6 | 2.6 | 0.00 | 0.00 | 0.00 | 89 | 1012.0 |
| 20260502110047 | 56 | 21 | 2.6 | 2.6 | 0.00 | 0.00 | 0.00 | 89 | 1012.0 |
| 20260502104147 | 57 | 21 | 2.6 | 2.6 | 0.00 | 0.00 | 0.00 | 89 | 1012.0 |
| 20260502104047 | 57 | 21 | 2.6 | 2.6 | 0.00 | 0.00 | 0.00 | 89 | 1012.0 |
| 20260502102147 | 58 | 21 | 2.6 | 2.6 | 0.00 | 0.00 | 0.00 | 89 | 1011.0 |
| 20260502102047 | 58 | 21 | 2.6 | 2.6 | 0.00 | 0.00 | 0.00 | 89 | 1011.0 |
| 20260502100146 | 56 | 16 | 2.6 | 2.6 | 0.00 | 0.00 | 0.00 | 90 | 1011.0 |
| 20260502090146 | 57 | 16 | 2.6 | 2.6 | 0.00 | 0.00 | 0.00 | 91 | 1011.0 |
| 20260502070142 | 59 | 346 | 1.7 | 2.6 | 0.00 | 0.00 | 0.00 | 93 | 1012.0 |
| 20260502070042 | 59 | 346 | 1.7 | 2.6 | 0.00 | 0.00 | 0.00 | 93 | 1012.0 |
| 20260502064142 | 58 | 46 | 0.9 | 0.9 | 0.00 | 0.00 | 0.00 | 93 | 1012.0 |
| 20260502064041 | 58 | 46 | 0.9 | 0.9 | 0.00 | 0.00 | 0.00 | 93 | 1012.0 |
| 20260502062141 | 59 | 46 | 0.9 | 0.9 | 0.00 | 0.00 | 0.00 | 93 | 1012.0 |
| 20260502062041 | 59 | 46 | 0.9 | 0.9 | 0.00 | 0.00 | 0.00 | 93 | 1012.0 |
| 20260502060141 | 57 | 72 | 0.9 | 0.9 | 0.00 | 0.00 | 0.00 | 93 | 1012.0 |
| 20260502060040 | 57 | 72 | 0.9 | 0.9 | 0.00 | 0.00 | 0.00 | 93 | 1012.0 |
| 20260502054040 | 58 | 72 | 0.9 | 0.9 | 0.00 | 0.00 | 0.00 | 93 | 1012.0 |
| 20260502052140 | 59 | 72 | 0.9 | 0.9 | 0.00 | 0.00 | 0.00 | 93 | 1012.0 |
| 20260502052040 | 59 | 72 | 0.9 | 0.9 | 0.00 | 0.00 | 0.00 | 93 | 1012.0 |
| 20260502050139 | 58 | 72 | 0.9 | 0.9 | 0.00 | 0.00 | 0.00 | 95 | 1013.0 |
| 20260502050039 | 58 | 72 | 0.9 | 0.9 | 0.00 | 0.00 | 0.00 | 95 | 1013.0 |
| 20260502044139 | 59 | 72 | 0.9 | 0.9 | 0.00 | 0.00 | 0.00 | 95 | 1013.0 |
| 20260502044039 | 59 | 72 | 0.9 | 0.9 | 0.00 | 0.00 | 0.00 | 95 | 1013.0 |
| 20260502042138 | 58 | 354 | 0.9 | 0.9 | 0.00 | 0.00 | 0.00 | 89 | 1012.0 |
| 20260502042038 | 58 | 354 | 0.9 | 0.9 | 0.00 | 0.00 | 0.00 | 89 | 1012.0 |
| 20260502040138 | 59 | 354 | 0.9 | 0.9 | 0.00 | 0.00 | 0.00 | 89 | 1013.0 |
| 20260502040038 | 59 | 354 | 0.9 | 0.9 | 0.00 | 0.00 | 0.00 | 89 | 1013.0 |
| 20260502034137 | 60 | 354 | 1.7 | 1.7 | 0.00 | 0.00 | 0.00 | 93 | 1013.0 |
| 20260502034037 | 60 | 354 | 1.7 | 1.7 | 0.00 | 0.00 | 0.00 | 93 | 1013.0 |
| 20260502032137 | 59 | 351 | 0.9 | 0.9 | 0.00 | 0.00 | 0.00 | 93 | 1011.0 |
| 20260502032037 | 59 | 351 | 0.9 | 0.9 | 0.00 | 0.00 | 0.00 | 93 | 1011.0 |
| 20260502030136 | 60 | 351 | 1.7 | 1.7 | 0.00 | 0.00 | 0.00 | 93 | 1013.0 |
| 20260502030036 | 60 | 351 | 1.7 | 1.7 | 0.00 | 0.00 | 0.00 | 93 | 1013.0 |
| 20260502024136 | 59 | 7 | 0.9 | 0.9 | 0.00 | 0.00 | 0.00 | 91 | 1013.0 |
| 20260502024036 | 59 | 7 | 0.9 | 0.9 | 0.00 | 0.00 | 0.00 | 91 | 1013.0 |
| 20260502022135 | 60 | 7 | 0.9 | 0.9 | 0.00 | 0.00 | 0.00 | 91 | 1011.0 |
| 20260502022035 | 60 | 7 | 0.9 | 0.9 | 0.00 | 0.00 | 0.00 | 91 | 1011.0 |
| 20260502020135 | 58 | 79 | 0.9 | 0.9 | 0.00 | 0.00 | 0.00 | 91 | 1012.0 |
| 20260502020035 | 58 | 79 | 0.9 | 0.9 | 0.00 | 0.00 | 0.00 | 91 | 1012.0 |